Regional Weather Roundup
Issued by NWS

Home | Current Version | Previous Version | Text Only | Print | Product List | Glossary On
Versions: 1 2 3 4 5 6 7 8 9 10 11 12 13 14 15 16 17 18 19 20 21 22 23 24 25 26 27 28 29 30 31 32 33 34 35 36 37 38 39 40 41 42 43 44 45 46 47 48 49 50
000
ASUS43 KMKX 180221
RWRWI

WISCONSIN REGIONAL WEATHER ROUNDUP
NATIONAL WEATHER SERVICE MILWAUKEE/SULLIVAN WI
900 PM CDT WED SEP 17 2014

NOTE: "FAIR" INDICATES FEW OR NO CLOUDS BELOW 12,000 FEET WITH NO
SIGNIFICANT WEATHER AND/OR OBSTRUCTIONS TO VISIBILITY.

WIZ001-002-006>008-014>016-023>028-180300-
NORTHWEST WISCONSIN

CITY           SKY/WX    TMP DP  RH WIND       PRES   REMARKS
SUPERIOR ARPT  CLOUDY    47  42  82 NE14G21   30.11R
ASHLAND        CLOUDY    46  40  79 NE14      30.13R
HAYWARD        CLOUDY    47  44  90 NE9       30.08R
SIREN          CLOUDY    50  46  85 NE9       30.06R
RICE LAKE      CLEAR     54  48  81 N12G18    30.05R
LADYSMITH      CLEAR     52  48  86 N10G16    30.05R
EAU CLAIRE     CLEAR     56  53  90 CALM      30.00R
MENOMONIE      CLEAR     58  54  84 CALM      30.00R
NEW RICHMOND   CLEAR     54  53  95 CALM      30.00R
OSCEOLA        CLEAR     55  55 100 CALM      30.02R
$$

WIZ003>005-009-010-017-018-180300-
NORTH CENTRAL WISCONSIN

CITY           SKY/WX    TMP DP  RH WIND       PRES   REMARKS
WOODRUFF       MOCLDY    52  47  84 NE7       30.06R
RHINELANDER    CLOUDY    51  46  83 NE7       30.06R
EAGLE RIVER    CLOUDY    46  41  81 NE8       30.06R
LAND O LAKES   CLOUDY    44  42  93 NE3       30.09R
PHILLIPS       PTCLDY    50  46  85 NE8       30.05R
TOMAHAWK       CLEAR     51  47  84 NE7       30.05R
MEDFORD        PTCLDY    54  51  88 NE6       30.02R
MERRILL        MOCLDY    56  50  82 NE7       30.03R
$$

WIZ029-030-035-036-043>047-180300-
CENTRAL WISCONSIN

CITY           SKY/WX    TMP DP  RH WIND       PRES   REMARKS
WAUSAU         PTCLDY    55  52  89 N9        29.99R
MOSINEE        PTCLDY    57  54  88 W5        30.01R
MARSHFIELD     CLEAR     55  52  89 CALM      30.00R
STEVENS POINT  CLEAR     52  49  90 CALM      30.01R
WAUPACA        CLEAR     55  53  91 CALM      30.00R
WAUTOMA        CLEAR     52  50  93 CALM      30.01R
WISC RAPIDS    CLEAR     52  51  97 CALM      30.02R FOG
CAMP DOUGLAS   CLEAR     50  50 100 CALM      30.00R
$$

WIZ011>013-019>022-031-037>040-048>050-180300-
NORTHEAST WISCONSIN

CITY           SKY/WX    TMP DP  RH WIND       PRES   REMARKS
ANTIGO         CLOUDY    54  51  90 E8        30.04R
STURGEON BAY   MOCLDY    52  45  76 NE12G20   30.05R
GREEN BAY      CLOUDY    55  51  86 NE21G30   30.02R
MANITOWOC      CLEAR     54  52  93 SW6       29.99R
APPLETON       PTCLDY    55  48  76 W6        29.99R
CLINTONVILLE   CLOUDY    57  50  77 NE15G21   30.02R
OSHKOSH        CLEAR     59  50  72 SW3       29.99R
$$

WIZ032>034-041-042-053>061-180300-
SOUTHWEST WISCONSIN

CITY           SKY/WX    TMP DP  RH WIND       PRES   REMARKS
LA CROSSE      CLEAR     59  55  87 SE3       29.99R
SPARTA         CLEAR     51  50  95 CALM      30.02R
VIROQUA        FAIR      55  51  85 S3        30.01S
BOSCOBEL       CLEAR     54  52  93 CALM      30.01R
PRAIRIE DU CHI CLEAR     54  51  89 CALM      30.00R
PLATTEVILLE    FAIR      57  50  76 NE3       30.02R
$$

WIZ056-057-062-063-064-067-068-180300-
SOUTH CENTRAL WISCONSIN

CITY           SKY/WX    TMP DP  RH WIND       PRES   REMARKS
BARABOO/DELLS  CLEAR     53  49  86 CALM      30.00S
LONE ROCK      CLEAR     56  49  77 CALM      30.01R
WATERTOWN      CLEAR     51  50  95 CALM      30.00S
MADISON        CLEAR     56  51  84 CALM      30.01R
MIDDLETON      FAIR      55  54  97 CALM      30.01S
MONROE         CLEAR     61  50  67 NE3       30.00S
JANESVILLE     MOCLDY    55  52  88 CALM      30.00R
$$

WIZ051-052-058>065-066-070>072-180300-
SOUTHEAST WISCONSIN

CITY           SKY/WX    TMP DP  RH WIND       PRES   REMARKS
MILWAUKEE      PTCLDY    58  48  69 S3        30.01R
WAUKESHA       CLEAR     55  48  76 CALM      30.02R
MILWAUKEE/TIMM CLEAR     55  46  71 CALM      30.01R
RACINE         CLEAR     54  49  83 S5        30.03R
BURLINGTON     CLEAR     48  47  97 CALM      30.01R
KENOSHA        CLEAR     52  48  86 CALM      30.02R
FOND DU LAC    CLEAR     56  50  80 CALM      30.00R
SHEBOYGAN      CLEAR     54  49  83 CALM      30.00R
WEST BEND      CLEAR     52  46  82 CALM      30.01R
JUNEAU         CLEAR     54  50  88 CALM      30.02R
$$

LSZ147-162-180300-
LAKE SUPERIOR

STATION/POSITION TIME  TEMP    WIND        PRES    WAVE
                       AIR SEA DIR/SP/G            HT/PER
                 (UTC) (F)     (DEG/KT/KT) (MB)    (FT/S)
W MID LAKE BUOY  0150   45 47   70/ 14/ 16 1020.9R   3/ 6
DEVILS ISLAND    0200   46      70/ 18/ 21 1021.0R
PORT WING        0100   47      90/  4/ 12 1020.0
SAXON HARBOR     0100   49      50/ 18/ 22 1019.3R
$$

LMZ867-665-643>646-180300-
LAKE MICHIGAN

STATION/POSITION TIME  TEMP    WIND        PRES    WAVE
                       AIR SEA DIR/SP/G            HT/PER
                 (UTC) (F)     (DEG/KT/KT) (MB)    (FT/S)
N MID LAKE BUOY  0150   52 58   10/ 21/ 25 1017.3R   4/ 4
NORTHPORT PIER   0200   51      10/ 17/ 22 1018.3R
KEWAUNEE LAKESHO 0200   55      10/ 16/ 21 1015.1R
SHEBOYGAN LAKESH 0200   57 49  210/  6/  6 1016.2R
PORT WASHINGTON  0100   59     220/  4/  7 1016.3
ATWATER BUOY     0200   58     200/  6/  6 1017.2R
MILWAUKEE LAKESH 0200   59     230/  2/  3   N/A
S MID LAKE BUOY  0150   62 64  160/  6/  6 1016.4R   0
KENOSHA   LAKESH 0200   60     180/  5/  6 1015.9
$$

TC  - TEMPERATURE IN CELSIUS
VSB - VISIBILITY IN STATUTE MILES
WCI - WIND CHILL INDEX
HX  - HEAT INDEX




USA.gov is the U.S. government's official web portal to all federal, state and local government web resources and services.